QPF
0.00 0.00 0.00 0.00 0.00 0.00 0.00 0.00 0.02 0.01 0.00 0.00 0.00 0.01 0.00 0.00 0.00 0.00 0.00 0.00 0.00 0.00 0.02 0.06 0.06 0.05 0.03 0.01 0.01 0.02 0.02 0.03 0.04 0.03 0.03 0.04 0.04 0.03 0.02 0.01 0.01 0.02 0.02 0.02
0.00 0.00 0.00 0.00 0.00 0.00 0.00 0.00 0.01 0.01 0.00 0.00 0.01 0.00 0.00 0.01 0.01 0.00 0.00 0.00 0.00 0.00 0.01 0.02 0.04 0.06 0.05 0.03 0.03 0.02 0.02 0.04 0.05 0.04 0.04 0.05 0.04 0.04 0.03 0.03 0.02 0.02 0.02 0.02
0.00 0.00 0.00 0.00 0.00 0.00 0.00 0.00 0.00 0.00 0.00 0.00 0.00 0.00 0.00 0.00 0.01 0.00 0.00 0.01 0.01 0.01 0.01 0.01 0.02 0.04 0.06 0.06 0.05 0.03 0.03 0.05 0.04 0.05 0.05 0.06 0.05 0.06 0.06 0.05 0.04 0.03 0.03 0.03
0.00 0.00 0.00 0.00 0.00 0.00 0.00 0.00 0.00 0.00 0.00 0.00 0.02 0.01 0.00 0.00 0.01 0.02 0.02 0.02 0.02 0.02 0.01 0.01 0.02 0.03 0.05 0.08 0.08 0.06 0.04 0.04 0.05 0.05 0.05 0.07 0.08 0.08 0.08 0.09 0.08 0.05 0.04 0.05
0.01 0.01 0.01 0.00 0.00 0.00 0.00 0.00 0.00 0.00 0.00 0.00 0.00 0.00 0.01 0.02 0.02 0.03 0.02 0.03 0.04 0.02 0.01 0.01 0.02 0.05 0.10 0.10 0.08 0.09 0.09 0.08 0.06 0.06 0.05 0.06 0.06 0.08 0.09 0.10 0.09 0.07 0.06 0.06
0.00 0.01 0.00 0.00 0.00 0.00 0.00 0.01 0.01 0.01 0.01 0.01 0.01 0.02 0.02 0.03 0.03 0.03 0.03 0.02 0.02 0.03 0.02 0.02 0.03 0.03 0.05 0.08 0.06 0.06 0.07 0.08 0.08 0.06 0.05 0.06 0.07 0.08 0.10 0.12 0.10 0.09 0.07 0.07
0.01 0.01 0.00 0.00 0.00 0.00 0.01 0.03 0.02 0.01 0.01 0.01 0.02 0.03 0.02 0.02 0.03 0.02 0.03 0.02 0.03 0.03 0.02 0.02 0.03 0.03 0.04 0.05 0.06 0.07 0.08 0.09 0.08 0.07 0.06 0.07 0.09 0.09 0.10 0.10 0.10 0.09 0.08 0.06
0.01 0.01 0.01 0.00 0.00 0.02 0.03 0.03 0.02 0.02 0.02 0.02 0.02 0.02 0.02 0.03 0.04 0.04 0.04 0.04 0.03 0.02 0.03 0.03 0.03 0.04 0.05 0.05 0.06 0.06 0.06 0.07 0.06 0.06 0.05 0.05 0.05 0.06 0.08 0.09 0.08 0.08 0.08 0.08
0.01 0.01 0.00 0.00 0.00 0.01 0.01 0.03 0.02 0.02 0.02 0.03 0.03 0.02 0.03 0.05 0.06 0.04 0.04 0.05 0.04 0.03 0.03 0.04 0.03 0.04 0.04 0.05 0.06 0.06 0.05 0.06 0.05 0.05 0.05 0.04 0.04 0.05 0.06 0.08 0.09 0.11 0.10 0.09
0.01 0.00 0.00 0.00 0.00 0.00 0.01 0.01 0.01 0.02 0.03 0.03 0.03 0.03 0.05 0.07 0.04 0.03 0.02 0.03 0.04 0.03 0.03 0.03 0.03 0.04 0.06 0.07 0.07 0.07 0.07 0.06 0.06 0.06 0.05 0.05 0.05 0.05 0.05 0.05 0.05 0.07 0.07 0.05
0.01 0.00 0.01 0.01 0.00 0.00 0.00 0.01 0.01 0.01 0.02 0.02 0.02 0.03 0.06 0.05 0.02 0.02 0.02 0.03 0.03 0.03 0.03 0.04 0.03 0.03 0.07 0.09 0.07 0.07 0.10 0.11 0.09 0.09 0.08 0.07 0.05 0.05 0.05 0.04 0.03 0.03 0.03 0.03
0.02 0.01 0.01 0.01 0.00 0.00 0.01 0.01 0.01 0.01 0.01 0.01 0.02 0.03 0.05 0.03 0.02 0.02 0.02 0.02 0.03 0.03 0.03 0.03 0.04 0.05 0.08 0.08 0.07 0.07 0.08 0.09 0.09 0.09 0.08 0.07 0.05 0.04 0.04 0.04 0.03 0.02 0.02 0.02
0.02 0.02 0.01 0.01 0.01 0.01 0.01 0.02 0.02 0.01 0.02 0.01 0.02 0.03 0.03 0.02 0.02 0.03 0.03 0.02 0.02 0.02 0.02 0.03 0.03 0.04 0.06 0.06 0.06 0.06 0.06 0.06 0.06 0.06 0.05 0.04 0.04 0.04 0.03 0.03 0.02 0.02 0.02 0.02
0.02 0.03 0.04 0.03 0.02 0.02 0.02 0.02 0.01 0.01 0.01 0.02 0.02 0.02 0.02 0.02 0.02 0.01 0.02 0.02 0.02 0.02 0.02 0.02 0.04 0.04 0.04 0.04 0.05 0.05 0.05 0.04 0.05 0.04 0.03 0.02 0.03 0.03 0.04 0.03 0.04 0.03 0.03 0.03
0.03 0.03 0.04 0.04 0.03 0.03 0.01 0.01 0.01 0.01 0.01 0.01 0.01 0.01 0.02 0.02 0.03 0.02 0.02 0.02 0.03 0.03 0.02 0.02 0.04 0.05 0.05 0.05 0.04 0.05 0.05 0.04 0.04 0.04 0.04 0.04 0.05 0.05 0.06 0.05 0.05 0.04 0.03 0.03
0.03 0.03 0.03 0.03 0.03 0.02 0.01 0.01 0.01 0.01 0.01 0.01 0.01 0.02 0.03 0.03 0.03 0.03 0.02 0.03 0.04 0.04 0.03 0.03 0.04 0.04 0.04 0.04 0.04 0.04 0.04 0.04 0.03 0.03 0.03 0.04 0.05 0.06 0.06 0.05 0.04 0.03 0.03 0.02
0.04 0.03 0.02 0.02 0.02 0.02 0.02 0.02 0.02 0.02 0.02 0.02 0.02 0.03 0.04 0.04 0.04 0.03 0.02 0.02 0.03 0.04 0.05 0.05 0.04 0.04 0.04 0.04 0.04 0.05 0.04 0.04 0.02 0.02 0.03 0.05 0.05 0.05 0.05 0.03 0.03 0.03 0.03 0.02
0.03 0.03 0.03 0.03 0.03 0.03 0.03 0.03 0.03 0.03 0.03 0.03 0.03 0.04 0.04 0.05 0.05 0.04 0.04 0.04 0.04 0.05 0.06 0.06 0.05 0.04 0.04 0.05 0.05 0.05 0.04 0.03 0.03 0.03 0.04 0.05 0.05 0.05 0.04 0.04 0.03 0.03 0.03 0.04
0.02 0.02 0.03 0.03 0.03 0.03 0.03 0.04 0.05 0.05 0.04 0.04 0.04 0.05 0.05 0.05 0.06 0.05 0.05 0.06 0.07 0.06 0.06 0.06 0.06 0.06 0.06 0.05 0.05 0.04 0.03 0.03 0.03 0.04 0.05 0.06 0.06 0.05 0.04 0.04 0.04 0.04 0.03 0.04
0.03 0.03 0.03 0.03 0.04 0.04 0.05 0.06 0.06 0.05 0.04 0.04 0.04 0.04 0.05 0.05 0.07 0.08 0.07 0.07 0.08 0.09 0.09 0.07 0.07 0.07 0.08 0.07 0.06 0.04 0.03 0.03 0.04 0.05 0.06 0.06 0.06 0.06 0.04 0.04 0.05 0.05 0.06 0.05
0.03 0.04 0.04 0.04 0.05 0.05 0.05 0.04 0.04 0.05 0.05 0.05 0.05 0.05 0.05 0.05 0.06 0.08 0.09 0.09 0.09 0.10 0.09 0.07 0.07 0.07 0.07 0.06 0.06 0.05 0.04 0.04 0.05 0.07 0.07 0.06 0.05 0.04 0.04 0.03 0.04 0.04 0.04 0.05
0.04 0.05 0.05 0.04 0.04 0.03 0.04 0.04 0.04 0.05 0.05 0.05 0.05 0.05 0.05 0.06 0.06 0.09 0.09 0.10 0.10 0.10 0.08 0.06 0.07 0.07 0.07 0.06 0.06 0.06 0.07 0.06 0.06 0.05 0.05 0.05 0.04 0.04 0.03 0.03 0.03 0.03 0.03 0.03
0.05 0.05 0.04 0.04 0.05 0.05 0.04 0.04 0.04 0.04 0.03 0.03 0.04 0.05 0.05 0.05 0.05 0.06 0.08 0.09 0.09 0.09 0.09 0.08 0.08 0.07 0.07 0.06 0.05 0.06 0.06 0.06 0.06 0.05 0.04 0.03 0.03 0.03 0.02 0.02 0.03 0.03 0.02 0.02
0.05 0.04 0.04 0.04 0.04 0.05 0.05 0.05 0.03 0.03 0.03 0.03 0.04 0.05 0.04 0.04 0.04 0.04 0.06 0.07 0.07 0.08 0.08 0.09 0.08 0.07 0.07 0.05 0.05 0.06 0.06 0.06 0.05 0.04 0.03 0.03 0.02 0.02 0.02 0.02 0.02 0.02 0.02 0.02
0.05 0.05 0.05 0.06 0.06 0.06 0.05 0.04 0.03 0.03 0.04 0.04 0.03 0.03 0.03 0.03 0.03 0.05 0.05 0.05 0.05 0.05 0.05 0.07 0.09 0.09 0.07 0.06 0.06 0.07 0.07 0.06 0.03 0.02 0.02 0.02 0.02 0.02 0.03 0.03 0.03 0.02 0.01 0.00
0.05 0.05 0.05 0.05 0.04 0.04 0.04 0.04 0.04 0.04 0.04 0.04 0.03 0.02 0.02 0.02 0.02 0.03 0.04 0.04 0.03 0.04 0.04 0.06 0.06 0.06 0.06 0.06 0.06 0.06 0.06 0.05 0.04 0.03 0.02 0.03 0.03 0.02 0.03 0.03 0.02 0.02 0.01 0.00
0.05 0.05 0.06 0.05 0.05 0.04 0.04 0.04 0.04 0.04 0.03 0.02 0.02 0.02 0.02 0.02 0.03 0.03 0.04 0.05 0.03 0.03 0.03 0.04 0.05 0.05 0.05 0.05 0.06 0.06 0.05 0.04 0.04 0.04 0.03 0.03 0.03 0.03 0.02 0.02 0.02 0.02 0.01 0.01
MSLP
1013.29 1012.76 1012.32 1012.03 1011.92 1011.96 1012.11 1012.30 1012.45 1012.48 1012.36 1012.06 1011.61 1011.05 1010.43 1009.82 1009.24 1008.73 1008.28 1007.87 1007.46 1007.03 1006.55 1005.99 1005.39 1004.76 1004.14 1003.60 1003.17 1002.88 1002.76 1002.80 1002.97 1003.26 1003.62 1004.01 1004.42 1004.81 1005.18 1005.54 1005.89 1006.24 1006.60 1006.99
1013.68 1013.19 1012.76 1012.46 1012.32 1012.35 1012.49 1012.69 1012.88 1012.96 1012.90 1012.67 1012.25 1011.68 1011.02 1010.31 1009.60 1008.93 1008.32 1007.77 1007.26 1006.75 1006.24 1005.69 1005.12 1004.53 1003.96 1003.43 1002.99 1002.66 1002.48 1002.44 1002.54 1002.76 1003.08 1003.45 1003.86 1004.28 1004.68 1005.05 1005.41 1005.75 1006.08 1006.42
1014.08 1013.67 1013.30 1013.03 1012.91 1012.94 1013.07 1013.27 1013.44 1013.52 1013.44 1013.18 1012.70 1012.06 1011.27 1010.41 1009.53 1008.68 1007.89 1007.18 1006.56 1005.99 1005.47 1004.97 1004.47 1003.98 1003.50 1003.06 1002.68 1002.38 1002.20 1002.15 1002.22 1002.42 1002.71 1003.09 1003.50 1003.93 1004.35 1004.75 1005.10 1005.43 1005.72 1006.00
1014.52 1014.22 1013.94 1013.74 1013.65 1013.68 1013.79 1013.94 1014.05 1014.05 1013.89 1013.51 1012.90 1012.10 1011.13 1010.07 1008.98 1007.92 1006.94 1006.08 1005.35 1004.75 1004.24 1003.81 1003.43 1003.08 1002.76 1002.46 1002.21 1002.02 1001.91 1001.91 1002.01 1002.22 1002.52 1002.91 1003.34 1003.78 1004.22 1004.62 1004.97 1005.27 1005.53 1005.76
1015.01 1014.83 1014.65 1014.52 1014.47 1014.49 1014.56 1014.63 1014.62 1014.49 1014.16 1013.61 1012.81 1011.79 1010.61 1009.32 1008.00 1006.73 1005.57 1004.57 1003.75 1003.12 1002.65 1002.31 1002.07 1001.90 1001.77 1001.67 1001.61 1001.58 1001.60 1001.69 1001.86 1002.12 1002.46 1002.86 1003.31 1003.77 1004.21 1004.62 1004.96 1005.25 1005.47 1005.65
1015.51 1015.45 1015.37 1015.31 1015.28 1015.28 1015.28 1015.23 1015.08 1014.76 1014.24 1013.47 1012.44 1011.20 1009.78 1008.26 1006.73 1005.27 1003.95 1002.83 1001.95 1001.30 1000.88 1000.65 1000.56 1000.57 1000.66 1000.77 1000.91 1001.07 1001.25 1001.47 1001.74 1002.07 1002.45 1002.88 1003.35 1003.82 1004.26 1004.67 1005.00 1005.27 1005.47 1005.62
1016.00 1016.03 1016.04 1016.03 1016.01 1015.96 1015.87 1015.69 1015.37 1014.86 1014.12 1013.13 1011.89 1010.42 1008.80 1007.09 1005.39 1003.77 1002.33 1001.13 1000.20 999.56 999.19 999.05 999.10 999.28 999.55 999.87 1000.20 1000.54 1000.88 1001.23 1001.60 1002.00 1002.42 1002.88 1003.36 1003.83 1004.27 1004.67 1005.00 1005.26 1005.44 1005.57
1016.41 1016.52 1016.58 1016.61 1016.58 1016.49 1016.30 1015.98 1015.49 1014.80 1013.86 1012.68 1011.25 1009.62 1007.85 1006.01 1004.19 1002.49 1000.98 999.73 998.78 998.15 997.82 997.75 997.90 998.21 998.62 999.08 999.57 1000.05 1000.51 1000.96 1001.40 1001.85 1002.31 1002.78 1003.26 1003.72 1004.15 1004.54 1004.87 1005.12 1005.31 1005.44
1016.69 1016.86 1016.97 1017.01 1016.96 1016.81 1016.53 1016.09 1015.46 1014.61 1013.53 1012.21 1010.66 1008.94 1007.09 1005.21 1003.36 1001.63 1000.11 998.86 997.92 997.29 996.98 996.94 997.14 997.50 997.98 998.52 999.08 999.64 1000.17 1000.67 1001.15 1001.62 1002.09 1002.55 1003.01 1003.46 1003.88 1004.26 1004.58 1004.85 1005.05 1005.19
1016.81 1017.02 1017.16 1017.21 1017.14 1016.95 1016.59 1016.05 1015.32 1014.36 1013.19 1011.81 1010.22 1008.49 1006.66 1004.81 1003.01 1001.34 999.87 998.65 997.73 997.12 996.80 996.75 996.92 997.26 997.72 998.25 998.81 999.35 999.88 1000.38 1000.85 1001.31 1001.76 1002.20 1002.64 1003.07 1003.47 1003.85 1004.18 1004.45 1004.68 1004.85
1016.76 1017.00 1017.16 1017.22 1017.14 1016.90 1016.49 1015.89 1015.10 1014.10 1012.90 1011.52 1009.98 1008.32 1006.60 1004.87 1003.20 1001.64 1000.27 999.13 998.24 997.63 997.27 997.16 997.25 997.50 997.87 998.30 998.76 999.23 999.69 1000.13 1000.56 1000.98 1001.39 1001.80 1002.22 1002.63 1003.03 1003.40 1003.74 1004.04 1004.29 1004.49
1016.55 1016.83 1017.01 1017.06 1016.97 1016.71 1016.28 1015.65 1014.84 1013.85 1012.69 1011.38 1009.95 1008.43 1006.88 1005.33 1003.84 1002.46 1001.22 1000.17 999.33 998.71 998.31 998.10 998.06 998.16 998.36 998.64 998.96 999.29 999.64 999.99 1000.35 1000.71 1001.09 1001.48 1001.88 1002.28 1002.68 1003.06 1003.41 1003.73 1004.00 1004.23
1016.24 1016.54 1016.74 1016.80 1016.71 1016.44 1015.99 1015.37 1014.57 1013.62 1012.54 1011.34 1010.06 1008.73 1007.39 1006.06 1004.79 1003.60 1002.52 1001.58 1000.79 1000.16 999.69 999.37 999.18 999.10 999.12 999.21 999.35 999.54 999.76 1000.01 1000.29 1000.61 1000.96 1001.34 1001.74 1002.15 1002.56 1002.96 1003.33 1003.66 1003.94 1004.17
1015.89 1016.21 1016.42 1016.49 1016.40 1016.13 1015.68 1015.07 1014.31 1013.43 1012.44 1011.37 1010.26 1009.13 1008.01 1006.91 1005.85 1004.86 1003.94 1003.11 1002.38 1001.74 1001.21 1000.77 1000.43 1000.19 1000.01 999.92 999.90 999.95 1000.05 1000.23 1000.46 1000.75 1001.10 1001.49 1001.91 1002.34 1002.78 1003.19 1003.57 1003.90 1004.17 1004.40
1015.53 1015.87 1016.09 1016.18 1016.09 1015.83 1015.39 1014.80 1014.08 1013.26 1012.37 1011.44 1010.49 1009.55 1008.63 1007.74 1006.88 1006.07 1005.29 1004.56 1003.88 1003.25 1002.66 1002.14 1001.67 1001.28 1000.96 1000.72 1000.57 1000.51 1000.54 1000.67 1000.88 1001.18 1001.55 1001.97 1002.42 1002.89 1003.34 1003.77 1004.15 1004.47 1004.72 1004.90
1015.20 1015.56 1015.80 1015.89 1015.81 1015.56 1015.14 1014.58 1013.90 1013.15 1012.34 1011.53 1010.72 1009.93 1009.18 1008.46 1007.77 1007.10 1006.45 1005.80 1005.17 1004.54 1003.92 1003.34 1002.79 1002.29 1001.87 1001.55 1001.32 1001.21 1001.21 1001.33 1001.56 1001.89 1002.29 1002.76 1003.25 1003.74 1004.21 1004.64 1005.00 1005.29 1005.50 1005.64
1014.92 1015.30 1015.55 1015.65 1015.58 1015.34 1014.94 1014.41 1013.78 1013.08 1012.35 1011.63 1010.93 1010.26 1009.64 1009.05 1008.48 1007.92 1007.36 1006.78 1006.19 1005.57 1004.95 1004.33 1003.74 1003.21 1002.74 1002.38 1002.13 1002.02 1002.03 1002.18 1002.45 1002.82 1003.26 1003.77 1004.28 1004.79 1005.26 1005.67 1006.00 1006.24 1006.40 1006.47
1014.66 1015.05 1015.32 1015.44 1015.39 1015.17 1014.80 1014.30 1013.72 1013.08 1012.42 1011.77 1011.15 1010.57 1010.04 1009.53 1009.05 1008.56 1008.06 1007.53 1006.97 1006.37 1005.76 1005.15 1004.56 1004.03 1003.57 1003.22 1003.00 1002.92 1002.97 1003.16 1003.47 1003.88 1004.36 1004.88 1005.40 1005.89 1006.34 1006.70 1006.98 1007.17 1007.26 1007.28
1014.39 1014.80 1015.09 1015.22 1015.20 1015.01 1014.68 1014.24 1013.71 1013.13 1012.54 1011.95 1011.40 1010.89 1010.42 1009.97 1009.53 1009.09 1008.63 1008.13 1007.60 1007.03 1006.45 1005.87 1005.31 1004.81 1004.40 1004.10 1003.92 1003.88 1003.98 1004.21 1004.55 1004.98 1005.46 1005.96 1006.45 1006.90 1007.29 1007.59 1007.81 1007.93 1007.97 1007.95
1014.09 1014.50 1014.80 1014.97 1014.98 1014.84 1014.56 1014.18 1013.73 1013.22 1012.71 1012.19 1011.71 1011.25 1010.83 1010.42 1010.01 1009.60 1009.16 1008.69 1008.18 1007.65 1007.10 1006.56 1006.06 1005.61 1005.25 1005.01 1004.89 1004.89 1005.02 1005.27 1005.61 1006.02 1006.46 1006.92 1007.34 1007.72 1008.03 1008.26 1008.41 1008.48 1008.48 1008.44
1013.72 1014.14 1014.45 1014.64 1014.68 1014.60 1014.40 1014.10 1013.73 1013.32 1012.89 1012.46 1012.05 1011.65 1011.27 1010.90 1010.52 1010.13 1009.71 1009.26 1008.78 1008.28 1007.78 1007.29 1006.84 1006.46 1006.16 1005.96 1005.88 1005.92 1006.06 1006.29 1006.60 1006.96 1007.33 1007.70 1008.04 1008.33 1008.56 1008.71 1008.81 1008.84 1008.83 1008.81
1013.31 1013.71 1014.02 1014.22 1014.30 1014.28 1014.15 1013.94 1013.67 1013.37 1013.04 1012.70 1012.37 1012.05 1011.72 1011.40 1011.05 1010.69 1010.30 1009.87 1009.43 1008.97 1008.51 1008.08 1007.68 1007.35 1007.10 1006.95 1006.89 1006.93 1007.05 1007.25 1007.50 1007.79 1008.07 1008.35 1008.59 1008.79 1008.94 1009.04 1009.10 1009.13 1009.14 1009.16
1012.86 1013.22 1013.51 1013.71 1013.82 1013.85 1013.80 1013.68 1013.51 1013.31 1013.10 1012.87 1012.63 1012.38 1012.13 1011.86 1011.56 1011.23 1010.87 1010.49 1010.08 1009.67 1009.26 1008.88 1008.54 1008.26 1008.05 1007.93 1007.88 1007.91 1008.00 1008.15 1008.33 1008.53 1008.73 1008.92 1009.08 1009.20 1009.30 1009.37 1009.43 1009.48 1009.55 1009.64
1012.40 1012.71 1012.95 1013.14 1013.26 1013.32 1013.32 1013.29 1013.22 1013.13 1013.02 1012.89 1012.75 1012.59 1012.41 1012.20 1011.96 1011.68 1011.37 1011.03 1010.68 1010.32 1009.97 1009.65 1009.36 1009.13 1008.96 1008.86 1008.82 1008.84 1008.90 1009.00 1009.12 1009.25 1009.38 1009.49 1009.60 1009.68 1009.76 1009.84 1009.93 1010.04 1010.18 1010.36
1011.95 1012.18 1012.36 1012.51 1012.62 1012.70 1012.75 1012.78 1012.79 1012.79 1012.77 1012.74 1012.69 1012.62 1012.51 1012.37 1012.19 1011.97 1011.71 1011.43 1011.14 1010.84 1010.56 1010.30 1010.08 1009.91 1009.79 1009.71 1009.69 1009.71 1009.75 1009.82 1009.91 1009.99 1010.08 1010.16 1010.24 1010.33 1010.43 1010.54 1010.69 1010.87 1011.10 1011.38
1011.51 1011.64 1011.76 1011.86 1011.94 1012.02 1012.09 1012.17 1012.24 1012.31 1012.37 1012.42 1012.45 1012.44 1012.41 1012.32 1012.20 1012.04 1011.85 1011.63 1011.41 1011.19 1010.98 1010.80 1010.65 1010.55 1010.49 1010.46 1010.48 1010.52 1010.58 1010.64 1010.72 1010.80 1010.88 1010.97 1011.07 1011.19 1011.33 1011.51 1011.73 1011.99 1012.31 1012.66
1011.05 1011.10 1011.14 1011.19 1011.24 1011.31 1011.40 1011.50 1011.61 1011.73 1011.85 1011.96 1012.04 1012.10 1012.11 1012.08 1012.01 1011.91 1011.77 1011.62 1011.47 1011.33 1011.21 1011.12 1011.06 1011.04 1011.06 1011.11 1011.19 1011.28 1011.38 1011.48 1011.59 1011.70 1011.81 1011.93 1012.07 1012.24 1012.44 1012.68 1012.97 1013.31 1013.68 1014.10
Thickness
5788 5799 5805 5803 5807 5811 5805 5803 5795 5803 5807 5815 5820 5821 5819 5819 5816 5814 5813 5813 5812 5810 5808 5807 5806 5805 5805 5806 5805 5803 5799 5795 5791 5789 5786 5783 5780 5778 5776 5773 5772 5769 5766 5763
5772 5788 5792 5792 5802 5806 5805 5805 5802 5802 5803 5820 5820 5817 5810 5808 5805 5802 5801 5801 5802 5801 5799 5797 5797 5796 5797 5798 5798 5796 5793 5790 5788 5784 5781 5778 5776 5774 5772 5769 5768 5765 5762 5759
5755 5773 5778 5771 5791 5798 5800 5805 5801 5791 5799 5808 5801 5798 5798 5798 5796 5793 5794 5793 5792 5790 5789 5789 5789 5789 5789 5790 5791 5788 5785 5783 5781 5778 5775 5773 5771 5769 5766 5764 5761 5758 5756 5753
5746 5749 5736 5773 5805 5803 5795 5796 5801 5797 5796 5796 5791 5791 5793 5792 5788 5786 5786 5785 5783 5783 5782 5782 5783 5783 5782 5782 5780 5779 5777 5775 5774 5771 5768 5766 5764 5762 5760 5758 5754 5751 5749 5747
5736 5733 5745 5773 5787 5788 5777 5774 5787 5783 5784 5786 5788 5784 5779 5781 5780 5776 5777 5776 5775 5776 5776 5775 5774 5774 5773 5771 5771 5770 5768 5766 5765 5763 5760 5758 5757 5755 5754 5750 5747 5745 5743 5740
5729 5720 5722 5755 5780 5789 5774 5755 5771 5772 5769 5771 5770 5755 5756 5767 5768 5766 5767 5767 5767 5768 5768 5765 5765 5764 5761 5760 5760 5759 5759 5758 5756 5754 5751 5749 5748 5748 5746 5742 5739 5738 5735 5732
5720 5719 5735 5758 5774 5772 5739 5737 5760 5763 5760 5759 5752 5748 5752 5756 5757 5756 5755 5756 5757 5756 5755 5753 5754 5753 5750 5750 5750 5751 5751 5748 5746 5745 5744 5742 5740 5738 5736 5734 5731 5729 5726 5724
5716 5711 5720 5752 5754 5742 5737 5750 5752 5752 5751 5748 5745 5746 5745 5744 5745 5745 5744 5745 5745 5743 5743 5743 5743 5742 5739 5738 5741 5742 5741 5739 5737 5736 5736 5735 5731 5729 5727 5724 5722 5719 5715 5713
5718 5717 5731 5739 5738 5740 5743 5738 5739 5741 5743 5740 5737 5735 5735 5734 5734 5735 5734 5733 5733 5732 5730 5731 5731 5731 5729 5729 5731 5732 5730 5728 5727 5726 5726 5725 5722 5720 5718 5716 5713 5710 5706 5703
5711 5717 5722 5727 5728 5730 5730 5728 5730 5731 5732 5731 5728 5727 5726 5725 5724 5724 5724 5722 5723 5722 5719 5719 5720 5721 5721 5721 5721 5721 5719 5718 5717 5716 5715 5714 5713 5711 5708 5705 5703 5700 5696 5694
5699 5706 5709 5712 5714 5715 5717 5719 5719 5720 5722 5722 5719 5718 5717 5716 5715 5715 5714 5712 5712 5709 5708 5708 5710 5711 5712 5712 5712 5710 5709 5708 5707 5706 5705 5703 5701 5699 5698 5695 5693 5690 5688 5686
5688 5696 5694 5695 5702 5705 5703 5703 5705 5706 5707 5710 5710 5709 5708 5706 5706 5705 5703 5702 5701 5699 5698 5698 5700 5701 5703 5704 5703 5701 5699 5698 5699 5698 5696 5694 5691 5688 5684 5684 5682 5680 5678 5676
5688 5692 5692 5691 5693 5695 5694 5695 5697 5697 5697 5697 5699 5700 5699 5697 5696 5696 5693 5692 5691 5690 5690 5690 5690 5692 5694 5695 5694 5693 5691 5690 5690 5690 5688 5685 5683 5681 5676 5672 5670 5668 5667 5665
5682 5681 5678 5681 5682 5686 5687 5688 5689 5689 5689 5689 5689 5690 5689 5687 5686 5685 5684 5684 5683 5682 5682 5682 5682 5683 5686 5686 5685 5684 5684 5683 5682 5680 5679 5678 5676 5674 5671 5667 5664 5660 5657 5654
5672 5673 5672 5673 5674 5676 5677 5678 5677 5677 5678 5679 5680 5679 5677 5675 5675 5675 5676 5676 5675 5673 5673 5673 5672 5674 5677 5677 5676 5675 5675 5675 5673 5673 5672 5671 5669 5666 5663 5661 5657 5653 5650 5645
5664 5666 5665 5663 5663 5665 5666 5667 5666 5667 5668 5669 5669 5669 5669 5668 5667 5667 5667 5667 5664 5663 5664 5664 5664 5665 5668 5668 5667 5667 5666 5664 5664 5664 5663 5662 5660 5658 5655 5653 5650 5647 5642 5639
5652 5651 5652 5652 5653 5655 5656 5657 5658 5659 5660 5660 5659 5660 5660 5659 5658 5657 5657 5657 5657 5656 5656 5656 5657 5659 5660 5660 5659 5659 5658 5656 5655 5655 5655 5655 5653 5651 5648 5646 5644 5641 5637 5633
5649 5649 5648 5647 5646 5646 5648 5649 5651 5651 5650 5652 5652 5651 5649 5648 5647 5647 5648 5649 5649 5649 5649 5650 5651 5651 5651 5651 5651 5650 5650 5649 5648 5647 5647 5646 5645 5643 5641 5639 5637 5634 5631 5626
5644 5643 5643 5642 5642 5641 5641 5642 5643 5643 5643 5644 5643 5642 5641 5640 5640 5640 5640 5640 5639 5639 5641 5643 5642 5642 5642 5643 5642 5642 5642 5641 5640 5640 5639 5636 5635 5634 5633 5631 5629 5627 5625 5621
5637 5637 5637 5637 5637 5636 5635 5635 5636 5635 5635 5635 5635 5634 5634 5633 5633 5633 5633 5632 5633 5635 5635 5635 5635 5635 5636 5636 5635 5636 5636 5635 5634 5633 5632 5631 5629 5627 5626 5624 5623 5621 5618 5616
5630 5630 5630 5629 5629 5629 5629 5629 5629 5628 5628 5629 5628 5626 5626 5627 5627 5627 5626 5626 5627 5629 5629 5628 5629 5629 5630 5629 5628 5630 5630 5629 5628 5627 5626 5624 5622 5621 5620 5618 5616 5614 5612 5609
5623 5622 5622 5622 5622 5622 5623 5623 5623 5622 5622 5622 5622 5622 5621 5620 5621 5621 5620 5620 5621 5621 5622 5622 5623 5622 5623 5622 5623 5624 5624 5623 5622 5621 5619 5618 5616 5614 5613 5612 5610 5608 5606 5603
5617 5617 5617 5616 5615 5616 5617 5618 5617 5617 5616 5616 5616 5616 5615 5615 5615 5614 5613 5615 5616 5614 5615 5616 5615 5615 5615 5616 5617 5618 5618 5617 5616 5614 5612 5611 5610 5609 5607 5605 5604 5602 5600 5597
5611 5612 5612 5613 5612 5612 5611 5612 5613 5613 5613 5612 5612 5612 5611 5610 5610 5612 5612 5610 5610 5608 5609 5608 5608 5608 5608 5610 5611 5611 5610 5610 5609 5607 5606 5605 5605 5603 5601 5599 5597 5595 5593 5591
5608 5608 5609 5608 5608 5608 5608 5609 5609 5609 5610 5609 5610 5610 5609 5609 5608 5608 5607 5606 5604 5603 5604 5602 5602 5603 5604 5606 5605 5605 5603 5603 5602 5601 5599 5599 5598 5597 5595 5592 5590 5588 5585 5583
5605 5606 5606 5606 5606 5606 5607 5607 5606 5606 5606 5606 5606 5606 5606 5606 5606 5605 5603 5603 5602 5599 5600 5599 5599 5598 5600 5600 5599 5598 5597 5597 5596 5594 5593 5592 5590 5589 5587 5584 5582 5580 5577 5575
5604 5605 5604 5605 5605 5606 5606 5605 5604 5604 5604 5603 5602 5603 5603 5603 5602 5601 5600 5600 5599 5598 5599 5598 5597 5596 5596 5595 5594 5593 5592 5592 5590 5589 5587 5584 5583 5581 5579 5577 5574 5572 5570 5567